• In Netherlands
  • List of Countries
  • For 7 days
  • Water Temperature
  • Satellite Maps
  • Weather Map
  • Weather Widgets
  • user-avatar
    Login

    Hourly Weather Uida

    Today, 22 February, Wednesday

    Time Temperature Precipitation Wind Pressure Humidity
    00:00 +28°C° 0 mm 3 mps 756 mmHg 88%
    01:00 +27°C° 0 mm 3 mps 756 mmHg 90%
    02:00 +27°C° 0 mm 3 mps 756 mmHg 92%
    03:00 +27°C° 0 mm 3 mps 756 mmHg 94%
    04:00 +27°C° 0 mm 3 mps 756 mmHg 95%
    05:00 +26°C° 0 mm 3 mps 756 mmHg 96%
    06:00 +26°C° 0 mm 3 mps 756 mmHg 97%
    07:00 +28°C° 0 mm 2 mps 756 mmHg 88%
    08:00 +30°C° 0 mm 2 mps 757 mmHg 78%
    09:00 +31°C° 0 mm 2 mps 757 mmHg 69%
    10:00 +34°C° 0 mm 2 mps 757 mmHg 62%
    11:00 +35°C° 0 mm 3 mps 756 mmHg 55%
    12:00 +37°C° 0 mm 3 mps 756 mmHg 47%
    13:00 +37°C° 0 mm 3 mps 755 mmHg 47%
    14:00 +37°C° 0 mm 4 mps 755 mmHg 47%
    15:00 +37°C° 0 mm 4 mps 754 mmHg 47%
    16:00 +35°C° 0 mm 5 mps 754 mmHg 55%
    17:00 +33°C° 0 mm 5 mps 754 mmHg 64%
    18:00 +30°C° 0 mm 5 mps 754 mmHg 72%
    19:00 +30°C° 0 mm 5 mps 755 mmHg 76%
    20:00 +29°C° 0 mm 5 mps 756 mmHg 80%
    21:00 +29°C° 0 mm 5 mps 756 mmHg 84%
    22:00 +29°C° 0 mm 5 mps 756 mmHg 85%
    23:00 +28°C° 0 mm 5 mps 756 mmHg 86%

    Tomorrow, 23 February, Thursday

    Time Temperature Precipitation Wind Pressure Humidity
    00:00 +28°C° 0 mm 5 mps 756 mmHg 88%
    01:00 +28°C° 0 mm 5 mps 756 mmHg 86%
    02:00 +29°C° 0 mm 5 mps 756 mmHg 85%
    03:00 +29°C° 0 mm 5 mps 755 mmHg 83%
    04:00 +29°C° 0 mm 5 mps 755 mmHg 82%
    05:00 +29°C° 0 mm 5 mps 756 mmHg 81%
    06:00 +29°C° 0 mm 5 mps 756 mmHg 80%
    07:00 +29°C° 0 mm 5 mps 756 mmHg 76%
    08:00 +30°C° 0 mm 4 mps 757 mmHg 73%
    09:00 +30°C° 0 mm 4 mps 758 mmHg 69%
    10:00 +33°C° 0 mm 3 mps 757 mmHg 64%
    11:00 +34°C° 0 mm 3 mps 757 mmHg 59%
    12:00 +35°C° 0 mm 3 mps 757 mmHg 54%
    13:00 +36°C° 0 mm 3 mps 756 mmHg 51%
    14:00 +37°C° 0 mm 4 mps 755 mmHg 48%
    15:00 +37°C° 0 mm 4 mps 754 mmHg 46%
    16:00 +35°C° 0 mm 4 mps 754 mmHg 54%
    17:00 +34°C° 0 mm 5 mps 754 mmHg 62%
    18:00 +32°C° 0 mm 5 mps 755 mmHg 70%
    19:00 +30°C° 0 mm 4 mps 755 mmHg 74%
    20:00 +29°C° 0 mm 4 mps 756 mmHg 78%
    21:00 +29°C° 0 mm 4 mps 756 mmHg 82%
    22:00 +29°C° 0 mm 4 mps 756 mmHg 84%
    23:00 +28°C° 0 mm 4 mps 756 mmHg 85%

    Day after tomorrow, 24 February, Friday

    Time Temperature Precipitation Wind Pressure Humidity
    00:00 +28°C° 0 mm 4 mps 756 mmHg 87%
    01:00 +28°C° 0 mm 4 mps 755 mmHg 89%
    02:00 +28°C° 0 mm 4 mps 755 mmHg 90%
    03:00 +27°C° 0 mm 4 mps 754 mmHg 91%
    04:00 +27°C° 0 mm 4 mps 754 mmHg 91%
    05:00 +27°C° 0 mm 4 mps 755 mmHg 90%
    06:00 +27°C° 0 mm 4 mps 755 mmHg 90%
    07:00 +29°C° 0 mm 4 mps 755 mmHg 84%
    08:00 +30°C° 0 mm 4 mps 756 mmHg 78%
    09:00 +32°C° 0 mm 4 mps 757 mmHg 72%
    10:00 +33°C° 0.1 mm 4 mps 756 mmHg 68%
    11:00 +34°C° 0.1 mm 4 mps 756 mmHg 64%
    12:00 +34°C° 0.1 mm 4 mps 756 mmHg 60%
    13:00 +35°C° 0.1 mm 4 mps 755 mmHg 59%
    14:00 +35°C° 0.1 mm 4 mps 754 mmHg 57%
    15:00 +36°C° 0.1 mm 4 mps 754 mmHg 55%
    16:00 +34°C° 0 mm 4 mps 754 mmHg 60%
    17:00 +33°C° 0 mm 4 mps 754 mmHg 66%
    18:00 +32°C° 0 mm 4 mps 754 mmHg 71%
    19:00 +30°C° 0 mm 4 mps 755 mmHg 75%
    20:00 +29°C° 0 mm 4 mps 756 mmHg 79%
    21:00 +29°C° 0 mm 4 mps 756 mmHg 84%
    22:00 +28°C° 0 mm 4 mps 756 mmHg 84%
    23:00 +28°C° 0 mm 4 mps 756 mmHg 85%

    25 February, Saturday

    Time Temperature Precipitation Wind Pressure Humidity
    00:00 +28°C° 0 mm 5 mps 756 mmHg 86%
    01:00 +28°C° 0 mm 5 mps 756 mmHg 86%
    02:00 +28°C° 0 mm 5 mps 755 mmHg 87%
    03:00 +28°C° 0 mm 5 mps 755 mmHg 87%
    04:00 +27°C° 0 mm 4 mps 755 mmHg 89%
    05:00 +27°C° 0 mm 4 mps 755 mmHg 90%
    06:00 +27°C° 0 mm 4 mps 755 mmHg 91%
    07:00 +28°C° 0 mm 3 mps 756 mmHg 84%
    08:00 +30°C° 0 mm 3 mps 756 mmHg 76%
    09:00 +31°C° 0 mm 3 mps 757 mmHg 69%
    10:00 +33°C° 0 mm 3 mps 756 mmHg 64%
    11:00 +34°C° 0 mm 3 mps 756 mmHg 60%
    12:00 +35°C° 0 mm 3 mps 756 mmHg 56%
    13:00 +36°C° 0 mm 4 mps 755 mmHg 54%
    14:00 +36°C° 0 mm 4 mps 754 mmHg 52%
    15:00 +36°C° 0 mm 4 mps 754 mmHg 50%
    16:00 +35°C° 0 mm 4 mps 754 mmHg 58%
    17:00 +33°C° 0 mm 4 mps 754 mmHg 65%
    18:00 +30°C° 0 mm 5 mps 755 mmHg 72%
    19:00 +30°C° 0 mm 4 mps 755 mmHg 77%
    20:00 +29°C° 0 mm 4 mps 756 mmHg 81%
    21:00 +28°C° 0 mm 4 mps 757 mmHg 85%
    22:00 +28°C° 0 mm 4 mps 756 mmHg 85%
    23:00 +28°C° 0 mm 5 mps 756 mmHg 85%

    26 February, Sunday

    Time Temperature Precipitation Wind Pressure Humidity
    00:00 +28°C° 0 mm 5 mps 756 mmHg 86%
    01:00 +28°C° 0 mm 5 mps 755 mmHg 86%
    02:00 +28°C° 0 mm 4 mps 755 mmHg 86%
    03:00 +28°C° 0 mm 4 mps 755 mmHg 85%
    04:00 +28°C° 0 mm 4 mps 755 mmHg 87%
    05:00 +27°C° 0 mm 4 mps 755 mmHg 88%
    06:00 +27°C° 0 mm 4 mps 756 mmHg 89%
    07:00 +29°C° 0 mm 4 mps 756 mmHg 80%
    08:00 +32°C° 0 mm 4 mps 756 mmHg 71%
    09:00 +33°C° 0 mm 4 mps 757 mmHg 62%
    10:00 +35°C° 0 mm 4 mps 756 mmHg 58%
    11:00 +36°C° 0 mm 4 mps 756 mmHg 53%
    12:00 +37°C° 0 mm 4 mps 755 mmHg 49%
    13:00 +37°C° 0 mm 4 mps 754 mmHg 49%
    14:00 +37°C° 0 mm 5 mps 754 mmHg 49%
    15:00 +37°C° 0 mm 5 mps 753 mmHg 49%
    16:00 +35°C° 0 mm 5 mps 753 mmHg 56%
    17:00 +33°C° 0 mm 5 mps 754 mmHg 64%
    18:00 +30°C° 0 mm 5 mps 754 mmHg 71%
    19:00 +30°C° 0 mm 5 mps 754 mmHg 75%
    20:00 +29°C° 0 mm 5 mps 755 mmHg 79%
    21:00 +29°C° 0 mm 4 mps 755 mmHg 83%
    22:00 +29°C° 0 mm 4 mps 755 mmHg 83%
    23:00 +28°C° 0 mm 4 mps 755 mmHg 84%

    27 February, Monday

    Time Temperature Precipitation Wind Pressure Humidity
    00:00 +28°C° 0 mm 5 mps 755 mmHg 85%
    01:00 +28°C° 0 mm 4 mps 755 mmHg 86%
    02:00 +28°C° 0 mm 4 mps 754 mmHg 87%
    03:00 +28°C° 0 mm 4 mps 754 mmHg 88%
    04:00 +27°C° 0 mm 4 mps 754 mmHg 89%
    05:00 +27°C° 0 mm 4 mps 754 mmHg 90%
    06:00 +27°C° 0 mm 4 mps 755 mmHg 91%
    07:00 +29°C° 0 mm 4 mps 755 mmHg 81%
    08:00 +32°C° 0 mm 4 mps 755 mmHg 72%
    09:00 +33°C° 0 mm 4 mps 756 mmHg 62%
    10:00 +35°C° 0 mm 4 mps 755 mmHg 56%
    11:00 +37°C° 0 mm 4 mps 755 mmHg 50%
    12:00 +38°C° 0 mm 4 mps 754 mmHg 44%
    13:00 +39°C° 0.1 mm 5 mps 754 mmHg 45%
    14:00 +39°C° 0.1 mm 5 mps 753 mmHg 45%
    15:00 +39°C° 0.1 mm 5 mps 753 mmHg 46%
    16:00 +36°C° 0 mm 6 mps 753 mmHg 54%
    17:00 +34°C° 0 mm 6 mps 753 mmHg 62%
    18:00 +32°C° 0 mm 6 mps 753 mmHg 70%
    19:00 +30°C° 0 mm 6 mps 754 mmHg 73%
    20:00 +30°C° 0 mm 5 mps 754 mmHg 76%
    21:00 +29°C° 0 mm 5 mps 755 mmHg 79%
    22:00 +29°C° 0 mm 5 mps 755 mmHg 80%
    23:00 +29°C° 0 mm 5 mps 755 mmHg 81%
    Show more